Regional Weather Roundup
Issued by NWS Sterling, VA

Home | Current Version | Previous Version | Text Only | Print | Product List | Glossary On
Versions: 1 2 3 4 5 6 7 8 9 10 11 12 13 14 15 16 17 18 19 20 21 22 23 24 25 26 27
000
ASUS41 KLWX 220711
RWRLWX

REGIONAL WEATHER ROUNDUP
NATIONAL WEATHER SERVICE BALTIMORE MD/WASHINGTON DC
200 AM EST THU FEB 22 2018

Note: "FAIR" indicates few or no clouds below 12,000 feet
with no significant weather and/or obstructions to visibility.
 TC=TEMPERATURE CELSIUS

 * =Non NWS site. Station does not report precipitation (e.g. rain,
    snow, etc.), thunder, or fog.

DCZ001-MDZ009-015-VAZ040>042-051-053>054-220800-
WASHINGTON METRO

CITY           SKY/WX    TMP DP  RH WIND       PRES   REMARKS
WASHINGTON NAT MOCLDY    67  60  78 N9        30.39R
DULLES         CLOUDY    64  57  78 N12       30.40S
ANDREWS AFB    MOCLDY    62  59  90 NE7       30.38S
FT BELVOIR     CLOUDY    61  57  88 CALM      30.39R
QUANTICO       MOCLDY    61  60  97 NW5       30.39R
COLLEGE PARK*  CLOUDY    66  56  70 N7        30.40R
LEESBURG*      CLOUDY    59  54  82 N13G20    30.44R
MANASSAS*      CLOUDY    64  56  75 N8        30.40R
GAITHERSBURG*  CLOUDY    57  51  80 VRB6      30.43R

$$

MDZ006>007-011-014-220800-
BALTIMORE METRO

CITY           SKY/WX    TMP DP  RH WIND       PRES   REMARKS
BWI AIRPORT    MOCLDY    60  51  72 NE12      30.42R
MD SCIENCE CTR   N/A     60  50  69 MISG      30.41R
MARTIN STATE   CLOUDY    57  48  72 N8        30.45R
ANNAPOLIS      CLOUDY    61  52  72 NE14G24   30.41R
FORT MEADE*    CLOUDY    63  54  72 NE10G18   30.43R

$$

MDZ012-015-019>023-220800-
MARYLAND EASTERN SHORE

CITY           SKY/WX    TMP DP  RH WIND       PRES   REMARKS
OCEAN CITY     FAIR      55  54  96 SW3       30.40R
SALISBURY      FAIR      61  60  97 CALM      30.39R
BAY BRIDGE AP* CLOUDY    57  54  88 N5        30.41R
CAMBRIDGE*     CLOUDY    63  61  94 CALM      30.39S
EASTON*        MOCLDY    65  61  86 CALM      30.43R

$$

MDZ017>025-220800-
SOUTHERN MARYLAND

CITY           SKY/WX    TMP DP  RH WIND       PRES   REMARKS
PATUXENT RIVER CLOUDY    59  58  96 E5        30.38S
ST INIGOES     CLOUDY    63  60  90 CALM      30.38R
LEONARDTOWN*   CLOUDY    63  61  94 CALM      30.41R

$$

MDZ003>005-220800-
NORTH CENTRAL MARYLAND

CITY           SKY/WX    TMP DP  RH WIND       PRES   REMARKS
FREDERICK*     CLOUDY    54  43  66 N9        30.49R
HAGERSTOWN APT CLOUDY    53  47  79 N10       30.44S
WESTMINSTER*   CLOUDY    54  50  87 NE8       30.45S

$$

MDZ501>502-220800-
WESTERN MARYLAND

CITY           SKY/WX    TMP DP  RH WIND       PRES   REMARKS
OAKLAND*       CLOUDY    43  43 100 E7        30.41F VSB 1/2
CUMBERLAND*    NOT AVBL

$$

VAZ025>031-220800-
SHENANDOAH VALLEY

CITY           SKY/WX    TMP DP  RH WIND       PRES   REMARKS
WINCHESTER*    RAIN      57  52  82 N8        30.44R
FRONT ROYAL*   CLOUDY    61  54  77 N5        30.41S
LURAY*         CLOUDY    61  55  82 N9        30.40S
NEW MARKET*    CLOUDY    61  55  80 NE8       30.38S
STAUNTON*      CLOUDY    58  57  99 CALM      30.41S
WAYNESBORO*    CLOUDY    58  58  99 CALM      30.39S

$$

WVZ021-048>050-054>055-220800-
EASTERN WEST VIRGINIA PANHANDLE

CITY           SKY/WX    TMP DP  RH WIND       PRES   REMARKS
MARTINSBURG    CLOUDY    55  49  80 N15G22    30.43R
PETERSBURG*    CLOUDY    58  53  80 CALM      30.42S

$$

VAZ036>039-050-220800-
CENTRAL FOOTHILLS

CITY           SKY/WX    TMP DP  RH WIND       PRES   REMARKS
CHARLOTTESVILL FAIR      67  61  81 CALM      30.38R
CULPEPER*      CLOUDY    63  58  84 N3        30.41R
ORANGE*        MOCLDY    55  55 100 CALM      30.39R
GORDONSVILLE*  MOCLDY    56  56 100 CALM      30.38S
WARRENTON*     CLOUDY    64  56  75 N3        30.39R

$$

VAZ055>057-220800-
NORTH AND CENTRAL PIEDMONT

CITY           SKY/WX    TMP DP  RH WIND       PRES   REMARKS
FREDERICKSBRG* CLOUDY    63  63 100 CALM      30.38R
STAFFORD*      CLOUDY    64  64 100 CALM      30.43R

$$

NCZ024-NYZ072-PAZ021-071-VAZ022-071-220800-
OTHER REGIONAL OBSERVATIONS

CITY           SKY/WX    TMP DP  RH WIND       PRES   REMARKS
NEW YORK CITY  CLOUDY    56  32  40 NE10G23   30.47R
PHILADELPHIA   CLOUDY    56  38  50 N14       30.45R
PITTSBURGH     LGT RAIN  42  37  82 N7        30.49F
ROANOKE        FAIR      61  58  90 CALM      30.40F
RICHMOND       FAIR      61  60  97 S5        30.39S
RALEIGH        FAIR      65  63  93 SW9       30.43R

$$

ANZ530>537-220800-
MARINE OBSERVATIONS

STATION/POSITION TIME  TEMP    WIND        PRES
                       AIR SEA DIR/SP/G
                 (UTC) (F)     (DEG/KT/KT) (MB)
THOMAS PT LIGHT  0700   54 41   20/ 15/ 19   N/A
BALT KEY BRIDGE  0648   58      10/ 14/ 15 1030.2R
COVE POINT       0648   59     150/  2/  4 1029.7R
LEWISETTA        0648   65 53  240/  5/  7 1028.9R
SOLOMONS ISLAND  0648   62 44   10/  3/  3 1028.7R
PINEY POINT      0648          210/  2/  2   N/A

$$





USA.gov is the U.S. government's official web portal to all federal, state and local government web resources and services.